Погода в Тамале

Россия / Пензенская область     52°32′38″N   43°14′54″E
темп.,
°C
ветер,
м/с
пор.,
м/с
влажн.,
%
обл.,
%
осадки,
мм/ч
давл.,
гПа
погр.,
м
18 апреля, вс
вс1800:00+7з359216 2.1 1019203
03:00+6з23910 2.1 102050
06:00+6сз24880 0.0 101976
09:00+10сз22650 0.0 1019618
12:00+13з22505 0.0 10191455
15:00+14сз114446 0.0 10181772
18:00+13всв346183 0.1 1018253
21:00+9в478683 0.3 1019274
19 апреля, пн
пн1900:00+8всв369096 0.0 1019231
03:00+7всв379240 0.0 1018209
06:00+6всв388799 0.1 1018330
09:00+9в5675100 0.2 1018888
12:00+9в787795 0.0 1018653
15:00+10в886971 0.0 1018885
18:00+8в71077100 0.0 1019679
21:00+7в61281100 0.0 1019587
20 апреля, вт
вт2000:00+7вюв61188100 0.0 1019633
03:00+5в7128993 0.0 1020486
06:00+5вюв71390100 0.5 1020535
09:00+5вюв81585100 0.8 1020669
12:00+7вюв101571100 0.0 1020790
15:00+8вюв111667100 0.0 1018942
18:00+7вюв122071100 0.2 10151037
21:00+7вюв132380100 4.3 10131064
21 апреля, ср
ср2100:00+6юв132387100 8.9 10121083
03:00+7юв122185100 9.1 1011989
06:00+6юв122190100 0.0 1011850
09:00+7ююв101890100 0.2 1011885
12:00+7ююв91592100 0.9 1013970
15:00+9ююв71392100 1.4 1014743
18:00+8юз388643 0.6 1016379
21:00+8юз3785100 0.8 1018195
22 апреля, чт
чт2200:00+6ююз228672 0.0 102022
03:00+6ю358956 0.0 1021139
06:00+5юз249298 0.0 1023125
09:00+9зюз34618 0.0 1024932
12:00+11юз3454100 0.0 10241630
15:00+11зюз3355100 0.0 10241011
18:00+11зюз23595 0.0 1025125
21:00+7ю11706 0.0 102510